TINTIN B (43217 NORAD) Tracking and Keplerian Element Data

This shows tracking and keplerian element data for the satellite.

Feedback or suggestion? Click here.




ElementValue
Catalog43217
NameTINTIN B
Epoch Orbit2662
Epoch Day228.95283163
Epoch Year2018
RAAN235.7538
Inclination97.4617
Eccentricity0.0014264
Argument of Perigee33.2403
Mean Anonmoly326.9725
Mean Motion15.1974904
Decay Rate1.62E-05
L11 43217U 18020C 18228.95283163 .00001620 00000-0 78817-4 0 9990
L22 43217 97.4617 235.7538 0014264 33.2403 326.9725 15.19749040 26628

Live tracking and technical data element details for TINTIN B (NORAD 43217). TINTIN B can be tracked NOW for your location showing map with azimuth and elevation plus other details from your city location.

Track the satellite on the map from your city or location and see movement details for azimuth, elevation, latitude, longitude, range, height, and movement on the map or in text.







IsCatalogInMostPopularTable: catalog: 43217, numindb: 126
Update: records affected: 1



GetName: 43217 TINTIN B

Hit Count: updated at: Fri, 17 Aug 2018 13:19:36 GMT